station,date_time,longitude_east,latitude_north,depth,sw_sal,sw_sal_result_value_qualifier,sea_water_temperature,sea_water_temperature_result_value_qualifier,sea_water_pressure,sea_water_pressure_result_value_qualifier,KD_PAR,KD_PAR_result_value_qualifier
CH38-1,2021-03-27T17:00:00Z,-78.97,53.28,3.80,14.85,,-16.77,,, NC,, NC
CH38-1,2021-03-27T17:30:00Z,-78.97,53.28,3.80,14.85,,-17.10,,, NC,, NC
CH38-1,2021-03-27T18:00:00Z,-78.97,53.28,3.80,14.84,,-17.27,,, NC,, NC
CH38-1,2021-03-27T18:30:00Z,-78.97,53.28,3.80,14.84,,-17.27,,, NC,, NC
CH38-1,2021-03-27T19:00:00Z,-78.97,53.28,3.80,14.84,,-17.27,,, NC,, NC
CH38-1,2021-03-27T19:30:00Z,-78.97,53.28,3.80,14.84,,-17.10,,, NC,, NC
CH38-1,2021-03-27T20:00:00Z,-78.97,53.28,3.80,14.84,,-15.77,,, NC,, NC
CH38-1,2021-03-27T20:30:00Z,-78.97,53.28,3.80,14.84,,-12.81,,, NC,, NC
CH38-1,2021-03-27T21:00:00Z,-78.97,53.28,3.80,14.84,,-9.94,,, NC,, NC
CH38-1,2021-03-27T21:30:00Z,-78.97,53.28,3.80,14.83,,-7.27,,, NC,, NC
CH38-1,2021-03-27T22:00:00Z,-78.97,53.28,3.80,14.82,,-4.76,,, NC,, NC
CH38-1,2021-03-27T22:30:00Z,-78.97,53.28,3.80,14.82,,-1.11,,, NC,, NC
CH38-1,2021-03-27T23:00:00Z,-78.97,53.28,3.80,14.82,,2.09,,, NC,, NC
CH38-1,2021-03-27T23:30:00Z,-78.97,53.28,3.80,14.81,,8.48,,, NC,, NC
CH38-1,2021-03-28T00:00:00Z,-78.97,53.28,3.80,14.81,,5.86,,, NC,, NC
CH38-1,2021-03-28T00:30:00Z,-78.97,53.28,3.80,14.80,,6.98,,, NC,, NC
CH38-1,2021-03-28T01:00:00Z,-78.97,53.28,3.80,14.80,,7.88,,, NC,, NC
CH38-1,2021-03-28T01:30:00Z,-78.97,53.28,3.80,14.79,,6.78,,, NC,, NC
CH38-1,2021-03-28T02:00:00Z,-78.97,53.28,3.80,14.79,,6.27,,, NC,, NC
CH38-1,2021-03-28T02:30:00Z,-78.97,53.28,3.80,14.79,,-0.77,,, NC,, NC
CH38-1,2021-03-28T03:00:00Z,-78.97,53.28,3.80,14.78,,-3.08,,, NC,, NC
CH38-1,2021-03-28T03:30:00Z,-78.97,53.28,3.80,14.78,,-0.66,,, NC,, NC
CH38-1,2021-03-28T04:00:00Z,-78.97,53.28,3.80,14.77,,-1.57,,, NC,, NC
CH38-1,2021-03-28T04:30:00Z,-78.97,53.28,3.80,14.76,,-1.68,,, NC,, NC
CH38-1,2021-03-28T05:00:00Z,-78.97,53.28,3.80,14.79,,-0.89,,, NC,, NC
CH38-1,2021-03-28T05:30:00Z,-78.97,53.28,3.80,14.78,,-0.77,,, NC,, NC
CH38-1,2021-03-28T06:00:00Z,-78.97,53.28,3.80,19.13,,-1.34,,, NC,, NC
CH38-1,2021-03-28T06:30:00Z,-78.97,53.28,3.80,19.21,,-1.34,,, NC,, NC
CH38-1,2021-03-28T07:00:00Z,-78.97,53.28,3.80,19.32,,-1.34,,, NC,, NC
CH38-1,2021-03-28T07:30:00Z,-78.97,53.28,3.80,19.40,,-1.34,,, NC,, NC
CH38-1,2021-03-28T08:00:00Z,-78.97,53.28,3.80,19.52,,-1.34,,, NC,, NC
CH38-1,2021-03-28T08:30:00Z,-78.97,53.28,3.80,19.64,,-1.34,,, NC,, NC
CH38-1,2021-03-28T09:00:00Z,-78.97,53.28,3.80,19.67,,-1.34,,, NC,, NC
CH38-1,2021-03-28T09:30:00Z,-78.97,53.28,3.80,19.75,,-1.34,,, NC,, NC
CH38-1,2021-03-28T10:00:00Z,-78.97,53.28,3.80,19.71,,-1.34,,, NC,, NC
CH38-1,2021-03-28T10:30:00Z,-78.97,53.28,3.80,19.73,,-1.34,,, NC,, NC
CH38-1,2021-03-28T11:00:00Z,-78.97,53.28,3.80,19.65,,-1.34,,, NC,, NC
CH38-1,2021-03-28T11:30:00Z,-78.97,53.28,3.80,19.61,,-1.34,,, NC,, NC
CH38-1,2021-03-28T12:00:00Z,-78.97,53.28,3.80,19.59,,-1.34,,, NC,, NC
CH38-1,2021-03-28T12:30:00Z,-78.97,53.28,3.80,19.57,,-1.34,,, NC,, NC
CH38-1,2021-03-28T13:00:00Z,-78.97,53.28,3.80,19.52,,-1.34,,, NC,, NC
CH38-1,2021-03-28T13:30:00Z,-78.97,53.28,3.80,19.49,,-1.34,,, NC,, NC
CH38-1,2021-03-28T14:00:00Z,-78.97,53.28,3.80,19.46,,-1.34,,, NC,, NC
CH38-1,2021-03-28T14:30:00Z,-78.97,53.28,3.80,19.38,,-1.34,,, NC,, NC
CH38-1,2021-03-28T15:00:00Z,-78.97,53.28,3.80,19.36,,-1.34,,, NC,, NC
CH38-1,2021-03-28T15:30:00Z,-78.97,53.28,3.80,19.35,,-1.34,,, NC,, NC
CH38-1,2021-03-28T16:00:00Z,-78.97,53.28,3.80,19.35,,-1.34,,, NC,, NC
CH38-1,2021-03-28T16:30:00Z,-78.97,53.28,3.80,19.36,,-1.34,,, NC,, NC
CH38-1,2021-03-28T17:00:00Z,-78.97,53.28,3.80,19.46,,-1.34,,, NC,, NC
CH38-1,2021-03-28T17:30:00Z,-78.97,53.28,3.80,19.57,,-1.34,,, NC,, NC
CH38-1,2021-03-28T18:00:00Z,-78.97,53.28,3.80,19.67,,-1.34,,, NC,, NC
CH38-1,2021-03-28T18:30:00Z,-78.97,53.28,3.80,19.79,,-1.34,,, NC,, NC
CH38-1,2021-03-28T19:00:00Z,-78.97,53.28,3.80,19.92,,-1.34,,, NC,, NC
CH38-1,2021-03-28T19:30:00Z,-78.97,53.28,3.80,20.03,,-1.34,,, NC,, NC
CH38-1,2021-03-28T20:00:00Z,-78.97,53.28,3.80,20.16,,-1.34,,, NC,, NC
CH38-1,2021-03-28T20:30:00Z,-78.97,53.28,3.80,20.24,,-1.34,,, NC,, NC
CH38-1,2021-03-28T21:00:00Z,-78.97,53.28,3.80,20.30,,-1.34,,, NC,, NC
CH38-1,2021-03-28T21:30:00Z,-78.97,53.28,3.80,20.34,,-1.34,,, NC,, NC
CH38-1,2021-03-28T22:00:00Z,-78.97,53.28,3.80,20.30,,-1.34,,, NC,, NC
CH38-1,2021-03-28T22:30:00Z,-78.97,53.28,3.80,20.23,,-1.34,,, NC,, NC
CH38-1,2021-03-28T23:00:00Z,-78.97,53.28,3.80,20.17,,-1.34,,, NC,, NC
CH38-1,2021-03-28T23:30:00Z,-78.97,53.28,3.80,20.08,,-1.34,,, NC,, NC
CH38-1,2021-03-29T00:00:00Z,-78.97,53.28,3.80,20.02,,-1.34,,, NC,, NC
CH38-1,2021-03-29T00:30:00Z,-78.97,53.28,3.80,19.98,,-1.34,,, NC,, NC
CH38-1,2021-03-29T01:00:00Z,-78.97,53.28,3.80,19.91,,-1.34,,, NC,, NC
CH38-1,2021-03-29T01:30:00Z,-78.97,53.28,3.80,19.85,,-1.34,,, NC,, NC
CH38-1,2021-03-29T02:00:00Z,-78.97,53.28,3.80,19.74,,-1.34,,, NC,, NC
CH38-1,2021-03-29T02:30:00Z,-78.97,53.28,3.80,19.65,,-1.34,,, NC,, NC
CH38-1,2021-03-29T03:00:00Z,-78.97,53.28,3.80,19.62,,-1.34,,, NC,, NC
CH38-1,2021-03-29T03:30:00Z,-78.97,53.28,3.80,19.58,,-1.34,,, NC,, NC
CH38-1,2021-03-29T04:00:00Z,-78.97,53.28,3.80,19.53,,-1.34,,, NC,, NC
CH38-1,2021-03-29T04:30:00Z,-78.97,53.28,3.80,19.50,,-1.34,,, NC,, NC
CH38-1,2021-03-29T05:00:00Z,-78.97,53.28,3.80,19.52,,-1.34,,, NC,, NC
CH38-1,2021-03-29T05:30:00Z,-78.97,53.28,3.80,19.54,,-1.34,,, NC,, NC
CH38-1,2021-03-29T06:00:00Z,-78.97,53.28,3.80,19.67,,-1.34,,, NC,, NC
CH38-1,2021-03-29T06:30:00Z,-78.97,53.28,3.80,19.78,,-1.34,,, NC,, NC
CH38-1,2021-03-29T07:00:00Z,-78.97,53.28,3.80,19.96,,-1.34,,, NC,, NC
CH38-1,2021-03-29T07:30:00Z,-78.97,53.28,3.80,20.12,,-1.34,,, NC,, NC
CH38-1,2021-03-29T08:00:00Z,-78.97,53.28,3.80,20.24,,-1.34,,, NC,, NC
CH38-1,2021-03-29T08:30:00Z,-78.97,53.28,3.80,20.31,,-1.34,,, NC,, NC
CH38-1,2021-03-29T09:00:00Z,-78.97,53.28,3.80,20.46,,-1.34,,, NC,, NC
CH38-1,2021-03-29T09:30:00Z,-78.97,53.28,3.80,20.54,,-1.34,,, NC,, NC
CH38-1,2021-03-29T10:00:00Z,-78.97,53.28,3.80,20.57,,-1.34,,, NC,, NC
CH38-1,2021-03-29T10:30:00Z,-78.97,53.28,3.80,20.61,,-1.34,,, NC,, NC
CH38-1,2021-03-29T11:00:00Z,-78.97,53.28,3.80,20.59,,-1.34,,, NC,, NC
CH38-1,2021-03-29T11:30:00Z,-78.97,53.28,3.80,20.58,,-1.34,,, NC,, NC
CH38-1,2021-03-29T12:00:00Z,-78.97,53.28,3.80,20.52,,-1.34,,, NC,, NC
CH38-1,2021-03-29T12:30:00Z,-78.97,53.28,3.80,20.46,,-1.34,,, NC,, NC
CH38-1,2021-03-29T13:00:00Z,-78.97,53.28,3.80,20.45,,-1.34,,, NC,, NC
CH38-1,2021-03-29T13:30:00Z,-78.97,53.28,3.80,20.43,,-1.34,,, NC,, NC
CH38-1,2021-03-29T14:00:00Z,-78.97,53.28,3.80,20.37,,-1.34,,, NC,, NC
CH38-1,2021-03-29T14:30:00Z,-78.97,53.28,3.80,20.29,,-1.34,,, NC,, NC
CH38-1,2021-03-29T15:00:00Z,-78.97,53.28,3.80,20.18,,-1.34,,, NC,, NC
CH38-1,2021-03-29T15:30:00Z,-78.97,53.28,3.80,20.07,,-1.34,,, NC,, NC
CH38-1,2021-03-29T16:00:00Z,-78.97,53.28,3.80,20.02,,-1.34,,, NC,, NC
CH38-1,2021-03-29T16:30:00Z,-78.97,53.28,3.80,19.91,,-1.34,,, NC,, NC
CH38-1,2021-03-29T17:00:00Z,-78.97,53.28,3.80,19.86,,-1.34,,, NC,, NC
CH38-1,2021-03-29T17:30:00Z,-78.97,53.28,3.80,19.87,,-1.34,,, NC,, NC
CH38-1,2021-03-29T18:00:00Z,-78.97,53.28,3.80,19.93,,-1.34,,, NC,, NC
CH38-1,2021-03-29T18:30:00Z,-78.97,53.28,3.80,19.98,,-1.34,,, NC,, NC
CH38-1,2021-03-29T18:59:00Z,-78.97,53.28,3.80,20.05,,-1.34,,, NC,, NC
CH38-1,2021-03-29T19:29:00Z,-78.97,53.28,3.80,20.15,,-1.34,,, NC,, NC
CH38-1,2021-03-29T19:59:00Z,-78.97,53.28,3.80,20.25,,-1.34,,, NC,, NC
CH38-1,2021-03-29T20:29:00Z,-78.97,53.28,3.80,20.37,,-1.34,,, NC,, NC
CH38-1,2021-03-29T20:59:00Z,-78.97,53.28,3.80,20.46,,-1.34,,, NC,, NC
CH38-1,2021-03-29T21:29:00Z,-78.97,53.28,3.80,20.56,,-1.34,,, NC,, NC
CH38-1,2021-03-29T21:59:00Z,-78.97,53.28,3.80,20.63,,-1.34,,, NC,, NC
CH38-1,2021-03-29T22:29:00Z,-78.97,53.28,3.80,20.64,,-1.34,,, NC,, NC
CH38-1,2021-03-29T22:59:00Z,-78.97,53.28,3.80,20.63,,-1.34,,, NC,, NC
CH38-1,2021-03-29T23:29:00Z,-78.97,53.28,3.80,20.58,,-1.34,,, NC,, NC
CH38-1,2021-03-29T23:59:00Z,-78.97,53.28,3.80,20.47,,-1.34,,, NC,, NC
CH38-1,2021-03-30T00:29:00Z,-78.97,53.28,3.80,20.40,,-1.34,,, NC,, NC
CH38-1,2021-03-30T00:59:00Z,-78.97,53.28,3.80,20.28,,-1.34,,, NC,, NC
CH38-1,2021-03-30T01:29:00Z,-78.97,53.28,3.80,20.26,,-1.34,,, NC,, NC
CH38-1,2021-03-30T01:59:00Z,-78.97,53.28,3.80,20.18,,-1.34,,, NC,, NC
CH38-1,2021-03-30T02:29:00Z,-78.97,53.28,3.80,20.05,,-1.34,,, NC,, NC
CH38-1,2021-03-30T02:59:00Z,-78.97,53.28,3.80,19.92,,-1.34,,, NC,, NC
CH38-1,2021-03-30T03:29:00Z,-78.97,53.28,3.80,19.81,,-1.34,,, NC,, NC
CH38-1,2021-03-30T03:59:00Z,-78.97,53.28,3.80,19.74,,-1.34,,, NC,, NC
CH38-1,2021-03-30T04:29:00Z,-78.97,53.28,3.80,19.67,,-1.34,,, NC,, NC
CH38-1,2021-03-30T04:59:00Z,-78.97,53.28,3.80,19.60,,-1.34,,, NC,, NC
CH38-1,2021-03-30T05:29:00Z,-78.97,53.28,3.80,19.59,,-1.34,,, NC,, NC
CH38-1,2021-03-30T05:59:00Z,-78.97,53.28,3.80,19.62,,-1.34,,, NC,, NC
CH38-1,2021-03-30T06:29:00Z,-78.97,53.28,3.80,19.70,,-1.34,,, NC,, NC
CH38-1,2021-03-30T06:59:00Z,-78.97,53.28,3.80,19.79,,-1.34,,, NC,, NC
CH38-1,2021-03-30T07:29:00Z,-78.97,53.28,3.80,19.91,,-1.34,,, NC,, NC
CH38-1,2021-03-30T07:59:00Z,-78.97,53.28,3.80,20.05,,-1.34,,, NC,, NC
CH38-1,2021-03-30T08:29:00Z,-78.97,53.28,3.80,20.19,,-1.34,,, NC,, NC
CH38-1,2021-03-30T08:59:00Z,-78.97,53.28,3.80,20.31,,-1.34,,, NC,, NC
CH38-1,2021-03-30T09:29:00Z,-78.97,53.28,3.80,20.42,,-1.34,,, NC,, NC
CH38-1,2021-03-30T09:59:00Z,-78.97,53.28,3.80,20.50,,-1.34,,, NC,, NC
CH38-1,2021-03-30T10:29:00Z,-78.97,53.28,3.80,20.52,,-1.34,,, NC,, NC
CH38-1,2021-03-30T10:59:00Z,-78.97,53.28,3.80,20.52,,-1.34,,, NC,, NC
CH38-1,2021-03-30T11:29:00Z,-78.97,53.28,3.80,20.52,,-1.34,,, NC,, NC
CH38-1,2021-03-30T11:59:00Z,-78.97,53.28,3.80,20.41,,-1.34,,, NC,, NC
CH38-1,2021-03-30T12:29:00Z,-78.97,53.28,3.80,20.32,,-1.34,,, NC,, NC
CH38-1,2021-03-30T12:59:00Z,-78.97,53.28,3.80,20.23,,-1.34,,, NC,, NC
CH38-1,2021-03-30T13:29:00Z,-78.97,53.28,3.80,20.17,,-1.34,,, NC,, NC
CH38-1,2021-03-30T13:59:00Z,-78.97,53.28,3.80,20.11,,-1.34,,, NC,, NC
CH38-1,2021-03-30T14:29:00Z,-78.97,53.28,3.80,20.01,,-1.34,,, NC,, NC
CH38-1,2021-03-30T14:59:00Z,-78.97,53.28,3.80,19.90,,-1.34,,, NC,, NC
CH38-1,2021-03-30T15:29:00Z,-78.97,53.28,3.80,19.77,,-1.34,,, NC,, NC
CH38-1,2021-03-30T15:59:00Z,-78.97,53.28,3.80,19.61,,-1.34,,, NC,, NC
CH38-1,2021-03-30T16:29:00Z,-78.97,53.28,3.80,19.45,,-1.34,,, NC,, NC
CH38-1,2021-03-30T16:59:00Z,-78.97,53.28,3.80,19.37,,-1.34,,, NC,, NC
CH38-1,2021-03-30T17:29:00Z,-78.97,53.28,3.80,19.35,,-1.34,,, NC,, NC
CH38-1,2021-03-30T17:59:00Z,-78.97,53.28,3.80,19.32,,-1.34,,, NC,, NC
CH38-1,2021-03-30T18:29:00Z,-78.97,53.28,3.80,19.32,,-1.34,,, NC,, NC
CH38-1,2021-03-30T18:59:00Z,-78.97,53.28,3.80,19.40,,-1.34,,, NC,, NC
CH38-1,2021-03-30T19:29:00Z,-78.97,53.28,3.80,19.50,,-1.34,,, NC,, NC
CH38-1,2021-03-30T19:59:00Z,-78.97,53.28,3.80,19.58,,-1.34,,, NC,, NC
CH38-1,2021-03-30T20:29:00Z,-78.97,53.28,3.80,19.72,,-1.23,,, NC,, NC
CH38-1,2021-03-30T20:59:00Z,-78.97,53.28,3.80,19.85,,-1.23,,, NC,, NC
CH38-1,2021-03-30T21:29:00Z,-78.97,53.28,3.80,19.87,,-1.23,,, NC,, NC
CH38-1,2021-03-30T21:59:00Z,-78.97,53.28,3.80,19.97,,-1.23,,, NC,, NC
CH38-1,2021-03-30T22:29:00Z,-78.97,53.28,3.80,19.98,,-1.23,,, NC,, NC
CH38-1,2021-03-30T22:59:00Z,-78.97,53.28,3.80,19.92,,-1.23,,, NC,, NC
CH38-1,2021-03-30T23:29:00Z,-78.97,53.28,3.80,19.94,,-1.23,,, NC,, NC
CH38-1,2021-03-30T23:59:00Z,-78.97,53.28,3.80,19.89,,-1.23,,, NC,, NC
CH38-1,2021-03-31T00:29:00Z,-78.97,53.28,3.80,19.87,,-1.23,,, NC,, NC
CH38-1,2021-03-31T00:59:00Z,-78.97,53.28,3.80,19.75,,-1.23,,, NC,, NC
CH38-1,2021-03-31T01:29:00Z,-78.97,53.28,3.80,19.52,,-1.23,,, NC,, NC
CH38-1,2021-03-31T01:59:00Z,-78.97,53.28,3.80,19.55,,-1.23,,, NC,, NC
CH38-1,2021-03-31T02:29:00Z,-78.97,53.28,3.80,19.53,,-1.34,,, NC,, NC
CH38-1,2021-03-31T02:59:00Z,-78.97,53.28,3.80,19.36,,-1.34,,, NC,, NC
CH38-1,2021-03-31T03:29:00Z,-78.97,53.28,3.80,19.25,,-1.34,,, NC,, NC
CH38-1,2021-03-31T03:59:00Z,-78.97,53.28,3.80,19.24,,-1.34,,, NC,, NC
CH38-1,2021-03-31T04:29:00Z,-78.97,53.28,3.80,19.03,,-1.34,,, NC,, NC
CH38-1,2021-03-31T04:59:00Z,-78.97,53.28,3.80,19.04,,-1.34,,, NC,, NC
CH38-1,2021-03-31T05:29:00Z,-78.97,53.28,3.80,19.00,,-1.34,,, NC,, NC
CH38-1,2021-03-31T05:59:00Z,-78.97,53.28,3.80,19.00,,-1.34,,, NC,, NC
CH38-1,2021-03-31T06:29:00Z,-78.97,53.28,3.80,19.11,,-1.34,,, NC,, NC
CH38-1,2021-03-31T06:59:00Z,-78.97,53.28,3.80,19.18,,-1.34,,, NC,, NC
CH38-1,2021-03-31T07:29:00Z,-78.97,53.28,3.80,19.36,,-1.34,,, NC,, NC
CH38-1,2021-03-31T07:59:00Z,-78.97,53.28,3.80,19.55,,-1.23,,, NC,, NC
CH38-1,2021-03-31T08:29:00Z,-78.97,53.28,3.80,19.52,,-1.34,,, NC,, NC
CH38-1,2021-03-31T08:59:00Z,-78.97,53.28,3.80,19.83,,-1.23,,, NC,, NC
CH38-1,2021-03-31T09:29:00Z,-78.97,53.28,3.80,19.87,,-1.23,,, NC,, NC
CH38-1,2021-03-31T09:59:00Z,-78.97,53.28,3.80,20.03,,-1.23,,, NC,, NC
CH38-1,2021-03-31T10:29:00Z,-78.97,53.28,3.80,20.14,,-1.23,,, NC,, NC
CH38-1,2021-03-31T10:59:00Z,-78.97,53.28,3.80,20.32,,-1.23,,, NC,, NC
CH38-1,2021-03-31T11:29:00Z,-78.97,53.28,3.80,20.41,,-1.23,,, NC,, NC
CH38-1,2021-03-31T11:59:00Z,-78.97,53.28,3.80,20.50,,-1.23,,, NC,, NC
CH38-1,2021-03-31T12:29:00Z,-78.97,53.28,3.80,20.46,,-1.23,,, NC,, NC
CH38-1,2021-03-31T12:59:00Z,-78.97,53.28,3.80,20.48,,-1.34,,, NC,, NC
CH38-1,2021-03-31T13:29:00Z,-78.97,53.28,3.80,20.47,,-1.34,,, NC,, NC
CH38-1,2021-03-31T13:59:00Z,-78.97,53.28,3.80,20.42,,-1.34,,, NC,, NC
CH38-1,2021-03-31T14:29:00Z,-78.97,53.28,3.80,20.38,,-1.23,,, NC,, NC
CH38-1,2021-03-31T14:59:00Z,-78.97,53.28,3.80,20.35,,-1.23,,, NC,, NC
CH38-1,2021-03-31T15:29:00Z,-78.97,53.28,3.80,20.34,,-1.34,,, NC,, NC
CH38-1,2021-03-31T15:59:00Z,-78.97,53.28,3.80,20.29,,-1.34,,, NC,, NC
CH38-1,2021-03-31T16:29:00Z,-78.97,53.28,3.80,20.23,,-1.34,,, NC,, NC
CH38-1,2021-03-31T16:59:00Z,-78.97,53.28,3.80,20.20,,-1.34,,, NC,, NC
CH38-1,2021-03-31T17:29:00Z,-78.97,53.28,3.80,20.17,,-1.34,,, NC,, NC
CH38-1,2021-03-31T17:59:00Z,-78.97,53.28,3.80,20.14,,-1.34,,, NC,, NC
CH38-1,2021-03-31T18:29:00Z,-78.97,53.28,3.80,20.15,,-1.34,,, NC,, NC
CH38-1,2021-03-31T18:59:00Z,-78.97,53.28,3.80,20.23,,-1.34,,, NC,, NC
CH38-1,2021-03-31T19:29:00Z,-78.97,53.28,3.80,20.36,,-1.34,,, NC,, NC
CH38-1,2021-03-31T19:59:00Z,-78.97,53.28,3.80,20.49,,-1.34,,, NC,, NC
CH38-1,2021-03-31T20:29:00Z,-78.97,53.28,3.80,20.66,,-1.34,,, NC,, NC
CH38-1,2021-03-31T20:59:00Z,-78.97,53.28,3.80,20.79,,-1.34,,, NC,, NC
CH38-1,2021-03-31T21:29:00Z,-78.97,53.28,3.80,20.95,,-1.34,,, NC,, NC
CH38-1,2021-03-31T21:59:00Z,-78.97,53.28,3.80,21.01,,-1.23,,, NC,, NC
CH38-1,2021-03-31T22:29:00Z,-78.97,53.28,3.80,21.01,,-1.23,,, NC,, NC
CH38-1,2021-03-31T22:59:00Z,-78.97,53.28,3.80,21.01,,-1.23,,, NC,, NC
CH38-1,2021-03-31T23:29:00Z,-78.97,53.28,3.80,21.01,,-1.34,,, NC,, NC
CH38-1,2021-03-31T23:59:00Z,-78.97,53.28,3.80,21.01,,-1.34,,, NC,, NC
CH38-1,2021-04-01T00:29:00Z,-78.97,53.28,3.80,21.01,,-1.34,,, NC,, NC
CH38-1,2021-04-01T00:59:00Z,-78.97,53.28,3.80,21.01,,-1.34,,, NC,, NC
CH38-1,2021-04-01T01:29:00Z,-78.97,53.28,3.80,21.01,,-1.34,,, NC,, NC
CH38-1,2021-04-01T01:59:00Z,-78.97,53.28,3.80,21.01,,-1.34,,, NC,, NC
CH38-1,2021-04-01T02:29:00Z,-78.97,53.28,3.80,20.95,,-1.34,,, NC,, NC
CH38-1,2021-04-01T02:59:00Z,-78.97,53.28,3.80,20.86,,-1.34,,, NC,, NC
CH38-1,2021-04-01T03:29:00Z,-78.97,53.28,3.80,20.77,,-1.34,,, NC,, NC
CH38-1,2021-04-01T03:59:00Z,-78.97,53.28,3.80,20.66,,-1.34,,, NC,, NC
CH38-1,2021-04-01T04:29:00Z,-78.97,53.28,3.80,20.55,,-1.34,,, NC,, NC
CH38-1,2021-04-01T04:59:00Z,-78.97,53.28,3.80,20.46,,-1.34,,, NC,, NC
CH38-1,2021-04-01T05:29:00Z,-78.97,53.28,3.80,20.39,,-1.34,,, NC,, NC
CH38-1,2021-04-01T05:59:00Z,-78.97,53.28,3.80,20.37,,-1.34,,, NC,, NC
CH38-1,2021-04-01T06:29:00Z,-78.97,53.28,3.80,20.32,,-1.34,,, NC,, NC
CH38-1,2021-04-01T06:59:00Z,-78.97,53.28,3.80,20.31,,-1.34,,, NC,, NC
CH38-1,2021-04-01T07:29:00Z,-78.97,53.28,3.80,20.34,,-1.34,,, NC,, NC
CH38-1,2021-04-01T07:59:00Z,-78.97,53.28,3.80,20.39,,-1.34,,, NC,, NC
CH38-1,2021-04-01T08:29:00Z,-78.97,53.28,3.80,20.49,,-1.34,,, NC,, NC
CH38-1,2021-04-01T08:59:00Z,-78.97,53.28,3.80,20.58,,-1.34,,, NC,, NC
CH38-1,2021-04-01T09:29:00Z,-78.97,53.28,3.80,20.72,,-1.34,,, NC,, NC
CH38-1,2021-04-01T09:59:00Z,-78.97,53.28,3.80,20.85,,-1.34,,, NC,, NC
CH38-1,2021-04-01T10:29:00Z,-78.97,53.28,3.80,20.95,,-1.23,,, NC,, NC
CH38-1,2021-04-01T10:59:00Z,-78.97,53.28,3.80,21.01,,-1.23,,, NC,, NC
CH38-1,2021-04-01T11:29:00Z,-78.97,53.28,3.80,21.01,,-1.23,,, NC,, NC
CH38-1,2021-04-01T11:59:00Z,-78.97,53.28,3.80,21.01,,-1.23,,, NC,, NC
CH38-1,2021-04-01T12:29:00Z,-78.97,53.28,3.80,21.01,,-1.23,,, NC,, NC
CH38-1,2021-04-01T12:59:00Z,-78.97,53.28,3.80,21.01,,-1.23,,, NC,, NC
CH38-1,2021-04-01T13:29:00Z,-78.97,53.28,3.80,21.01,,-1.23,,, NC,, NC
CH38-1,2021-04-01T13:59:00Z,-78.97,53.28,3.80,20.91,,-1.23,,, NC,, NC
CH38-1,2021-04-01T14:29:00Z,-78.97,53.28,3.80,20.81,,-1.23,,, NC,, NC
CH38-1,2021-04-01T14:59:00Z,-78.97,53.28,3.80,20.71,,-1.23,,, NC,, NC
CH38-1,2021-04-01T15:29:00Z,-78.97,53.28,3.80,20.58,,-1.23,,, NC,, NC
CH38-1,2021-04-01T15:59:00Z,-78.97,53.28,3.80,20.43,,-1.23,,, NC,, NC
CH38-1,2021-04-01T16:29:00Z,-78.97,53.28,3.80,20.25,,-1.23,,, NC,, NC
CH38-1,2021-04-01T16:59:00Z,-78.97,53.28,3.80,20.11,,-1.23,,, NC,, NC
CH38-1,2021-04-01T17:29:00Z,-78.97,53.28,3.80,20.00,,-1.23,,, NC,, NC
CH38-1,2021-04-01T17:59:00Z,-78.97,53.28,3.80,19.87,,-1.23,,, NC,, NC
CH38-1,2021-04-01T18:29:00Z,-78.97,53.28,3.80,19.76,,-1.23,,, NC,, NC
CH38-1,2021-04-01T18:59:00Z,-78.97,53.28,3.80,19.71,,-1.23,,, NC,, NC
CH38-1,2021-04-01T19:29:00Z,-78.97,53.28,3.80,19.68,,-1.23,,, NC,, NC
CH38-1,2021-04-01T19:59:00Z,-78.97,53.28,3.80,19.74,,-1.23,,, NC,, NC
CH38-1,2021-04-01T20:29:00Z,-78.97,53.28,3.80,19.78,,-1.23,,, NC,, NC
CH38-1,2021-04-01T20:59:00Z,-78.97,53.28,3.80,19.88,,-1.23,,, NC,, NC
CH38-1,2021-04-01T21:29:00Z,-78.97,53.28,3.80,20.01,,-1.23,,, NC,, NC
CH38-1,2021-04-01T21:59:00Z,-78.97,53.28,3.80,20.10,,-1.23,,, NC,, NC
CH38-1,2021-04-01T22:29:00Z,-78.97,53.28,3.80,20.27,,-1.23,,, NC,, NC
CH38-1,2021-04-01T22:59:00Z,-78.97,53.28,3.80,20.39,,-1.23,,, NC,, NC
CH38-1,2021-04-01T23:29:00Z,-78.97,53.28,3.80,20.48,,-1.23,,, NC,, NC
CH38-1,2021-04-01T23:59:00Z,-78.97,53.28,3.80,20.53,,-1.23,,, NC,, NC
CH38-1,2021-04-02T00:29:00Z,-78.97,53.28,3.80,20.59,,-1.23,,, NC,, NC
CH38-1,2021-04-02T00:59:00Z,-78.97,53.28,3.80,20.62,,-1.23,,, NC,, NC
CH38-1,2021-04-02T01:29:00Z,-78.97,53.28,3.80,20.57,,-1.23,,, NC,, NC
CH38-1,2021-04-02T01:59:00Z,-78.97,53.28,3.80,20.52,,-1.23,,, NC,, NC
CH38-1,2021-04-02T02:29:00Z,-78.97,53.28,3.80,20.42,,-1.23,,, NC,, NC
CH38-1,2021-04-02T02:59:00Z,-78.97,53.28,3.80,20.32,,-1.23,,, NC,, NC
CH38-1,2021-04-02T03:29:00Z,-78.97,53.28,3.80,20.24,,-1.23,,, NC,, NC
CH38-1,2021-04-02T03:59:00Z,-78.97,53.28,3.80,20.16,,-1.23,,, NC,, NC
CH38-1,2021-04-02T04:29:00Z,-78.97,53.28,3.80,20.04,,-1.23,,, NC,, NC
CH38-1,2021-04-02T04:59:00Z,-78.97,53.28,3.80,19.87,,-1.23,,, NC,, NC
CH38-1,2021-04-02T05:29:00Z,-78.97,53.28,3.80,19.68,,-1.23,,, NC,, NC
CH38-1,2021-04-02T05:59:00Z,-78.97,53.28,3.80,19.59,,-1.23,,, NC,, NC
CH38-1,2021-04-02T06:29:00Z,-78.97,53.28,3.80,19.54,,-1.23,,, NC,, NC
CH38-1,2021-04-02T06:59:00Z,-78.97,53.28,3.80,19.50,,-1.23,,, NC,, NC
CH38-1,2021-04-02T07:29:00Z,-78.97,53.28,3.80,19.49,,-1.23,,, NC,, NC
CH38-1,2021-04-02T07:59:00Z,-78.97,53.28,3.80,19.55,,-1.23,,, NC,, NC
CH38-1,2021-04-02T08:29:00Z,-78.97,53.28,3.80,19.59,,-1.23,,, NC,, NC
CH38-1,2021-04-02T08:59:00Z,-78.97,53.28,3.80,19.71,,-1.23,,, NC,, NC
CH38-1,2021-04-02T09:29:00Z,-78.97,53.28,3.80,19.86,,-1.23,,, NC,, NC
CH38-1,2021-04-02T09:59:00Z,-78.97,53.28,3.80,19.98,,-1.23,,, NC,, NC
CH38-1,2021-04-02T10:29:00Z,-78.97,53.28,3.80,20.14,,-1.23,,, NC,, NC
CH38-1,2021-04-02T10:59:00Z,-78.97,53.28,3.80,20.28,,-1.23,,, NC,, NC
CH38-1,2021-04-02T11:29:00Z,-78.97,53.28,3.80,20.37,,-1.23,,, NC,, NC
CH38-1,2021-04-02T11:59:00Z,-78.97,53.28,3.80,20.43,,-1.23,,, NC,, NC
CH38-1,2021-04-02T12:29:00Z,-78.97,53.28,3.80,20.49,,-1.23,,, NC,, NC
CH38-1,2021-04-02T12:59:00Z,-78.97,53.28,3.80,20.51,,-1.23,,, NC,, NC
CH38-1,2021-04-02T13:29:00Z,-78.97,53.28,3.80,20.48,,-1.23,,, NC,, NC
CH38-1,2021-04-02T13:59:00Z,-78.97,53.28,3.80,20.40,,-1.23,,, NC,, NC
CH38-1,2021-04-02T14:29:00Z,-78.97,53.28,3.80,20.27,,-1.23,,, NC,, NC
CH38-1,2021-04-02T14:59:00Z,-78.97,53.28,3.80,20.20,,-1.23,,, NC,, NC
CH38-1,2021-04-02T15:29:00Z,-78.97,53.28,3.80,20.10,,-1.23,,, NC,, NC
CH38-1,2021-04-02T15:59:00Z,-78.97,53.28,3.80,20.02,,-1.23,,, NC,, NC
CH38-1,2021-04-02T16:29:00Z,-78.97,53.28,3.80,19.86,,-1.23,,, NC,, NC
CH38-1,2021-04-02T16:59:00Z,-78.97,53.28,3.80,19.75,,-1.23,,, NC,, NC
CH38-1,2021-04-02T17:29:00Z,-78.97,53.28,3.80,19.55,,-1.23,,, NC,, NC
CH38-1,2021-04-02T17:59:00Z,-78.97,53.28,3.80,19.40,,-1.23,,, NC,, NC
CH38-1,2021-04-02T18:29:00Z,-78.97,53.28,3.80,19.31,,-1.23,,, NC,, NC
CH38-1,2021-04-02T18:59:00Z,-78.97,53.28,3.80,19.23,,-1.23,,, NC,, NC
CH38-1,2021-04-02T19:29:00Z,-78.97,53.28,3.80,19.20,,-1.23,,, NC,, NC
CH38-1,2021-04-02T19:59:00Z,-78.97,53.28,3.80,19.20,,-1.23,,, NC,, NC
CH38-1,2021-04-02T20:29:00Z,-78.97,53.28,3.80,19.22,,-1.23,,, NC,, NC
CH38-1,2021-04-02T20:59:00Z,-78.97,53.28,3.80,19.27,,-1.23,,, NC,, NC
CH38-1,2021-04-02T21:29:00Z,-78.97,53.28,3.80,19.35,,-1.23,,, NC,, NC
CH38-1,2021-04-02T21:59:00Z,-78.97,53.28,3.80,19.41,,-1.23,,, NC,, NC
CH38-1,2021-04-02T22:29:00Z,-78.97,53.28,3.80,19.54,,-1.23,,, NC,, NC
CH38-1,2021-04-02T22:59:00Z,-78.97,53.28,3.80,19.64,,-1.23,,, NC,, NC
CH38-1,2021-04-02T23:29:00Z,-78.97,53.28,3.80,19.74,,-1.23,,, NC,, NC
CH38-1,2021-04-02T23:59:00Z,-78.97,53.28,3.80,19.82,,-1.23,,, NC,, NC
CH38-1,2021-04-03T00:29:00Z,-78.97,53.28,3.80,19.91,,-1.23,,, NC,, NC
CH38-1,2021-04-03T00:59:00Z,-78.97,53.28,3.80,19.95,,-1.23,,, NC,, NC
CH38-1,2021-04-03T01:29:00Z,-78.97,53.28,3.80,19.99,,-1.23,,, NC,, NC
CH38-1,2021-04-03T01:59:00Z,-78.97,53.28,3.80,19.95,,-1.23,,, NC,, NC
CH38-1,2021-04-03T02:29:00Z,-78.97,53.28,3.80,19.89,,-1.23,,, NC,, NC
CH38-1,2021-04-03T02:59:00Z,-78.97,53.28,3.80,19.75,,-1.23,,, NC,, NC
CH38-1,2021-04-03T03:29:00Z,-78.97,53.28,3.80,19.61,,-1.23,,, NC,, NC
CH38-1,2021-04-03T03:59:00Z,-78.97,53.28,3.80,19.50,,-1.23,,, NC,, NC
CH38-1,2021-04-03T04:29:00Z,-78.97,53.28,3.80,19.40,,-1.23,,, NC,, NC
CH38-1,2021-04-03T04:59:00Z,-78.97,53.28,3.80,19.31,,-1.23,,, NC,, NC
CH38-1,2021-04-03T05:29:00Z,-78.97,53.28,3.80,19.13,,-1.23,,, NC,, NC
CH38-1,2021-04-03T05:59:00Z,-78.97,53.28,3.80,18.97,,-1.23,,, NC,, NC
CH38-1,2021-04-03T06:29:00Z,-78.97,53.28,3.80,18.85,,-1.23,,, NC,, NC
CH38-1,2021-04-03T06:59:00Z,-78.97,53.28,3.80,18.77,,-1.23,,, NC,, NC
CH38-1,2021-04-03T07:29:00Z,-78.97,53.28,3.80,18.78,,-1.23,,, NC,, NC
CH38-1,2021-04-03T07:59:00Z,-78.97,53.28,3.80,18.78,,-1.23,,, NC,, NC
CH38-1,2021-04-03T08:29:00Z,-78.97,53.28,3.80,18.82,,-1.23,,, NC,, NC
CH38-1,2021-04-03T08:59:00Z,-78.97,53.28,3.80,18.88,,-1.23,,, NC,, NC
CH38-1,2021-04-03T09:29:00Z,-78.97,53.28,3.80,18.96,,-1.23,,, NC,, NC
CH38-1,2021-04-03T09:59:00Z,-78.97,53.28,3.80,19.03,,-1.23,,, NC,, NC
CH38-1,2021-04-03T10:29:00Z,-78.97,53.28,3.80,19.19,,-1.23,,, NC,, NC
CH38-1,2021-04-03T10:59:00Z,-78.97,53.28,3.80,19.37,,-1.23,,, NC,, NC
CH38-1,2021-04-03T11:29:00Z,-78.97,53.28,3.80,19.50,,-1.23,,, NC,, NC
CH38-1,2021-04-03T11:59:00Z,-78.97,53.28,3.80,19.64,,-1.23,,, NC,, NC
CH38-1,2021-04-03T12:29:00Z,-78.97,53.28,3.80,19.76,,-1.23,,, NC,, NC
CH38-1,2021-04-03T12:59:00Z,-78.97,53.28,3.80,19.81,,-1.23,,, NC,, NC
CH38-1,2021-04-03T13:29:00Z,-78.97,53.28,3.80,19.89,,-1.23,,, NC,, NC
CH38-1,2021-04-03T13:59:00Z,-78.97,53.28,3.80,19.90,,-1.23,,, NC,, NC
CH38-1,2021-04-03T14:29:00Z,-78.97,53.28,3.80,19.85,,-1.23,,, NC,, NC
CH38-1,2021-04-03T14:59:00Z,-78.97,53.28,3.80,19.79,,-1.23,,, NC,, NC
CH38-1,2021-04-03T15:29:00Z,-78.97,53.28,3.80,19.66,,-1.23,,, NC,, NC
CH38-1,2021-04-03T15:59:00Z,-78.97,53.28,3.80,19.58,,-1.23,,, NC,, NC
CH38-1,2021-04-03T16:29:00Z,-78.97,53.28,3.80,19.49,,-1.23,,, NC,, NC
CH38-1,2021-04-03T16:59:00Z,-78.97,53.28,3.80,19.44,,-1.23,,, NC,, NC
CH38-1,2021-04-03T17:29:00Z,-78.97,53.28,3.80,19.37,,-1.23,,, NC,, NC
CH38-1,2021-04-03T17:59:00Z,-78.97,53.28,3.80,19.26,,-1.23,,, NC,, NC